Location: Antioch Church
(34.9543°N, 88.5145°W)
Time: 18:45:15
(UTC+00:00)

Cosmos 1900 - Pass Details

Date: 11 December 2019
Orbit: 692 x 730 km, 66.1° (Epoch: 18 January)

Event Time Altitude Azimuth Distance (km) Brightness Sun altitude
Rises 00:02:25 0° 330° (NNW) 3,070 7.8 -15.9°
Reaches altitude 10° 00:04:45 10° 329° (NNW) 2,149 7.0 -16.4°
Maximum altitude 00:09:37 74° 245° (WSW) 721 4.5 -17.3°
Drops below altitude 10° 00:14:28 10° 160° (SSE) 2,140 6.8 -18.3°
Sets 00:16:48 0° 159° (SSE) 3,057 7.6 -18.7°
